Air Force Academy, CO

10:12 AM MDT on September 18, 2019 (GMT -0600)
Usaf Academy

Weather History for KAFF - May, 2019

Change the Weather History Date:

Sunday, May 26, 2019

  Actual Average Record
Temperature  
Mean Temperature 62 °F -  
Max Temperature 75 °F 69 °F 85 °F (2012)
Min Temperature 50 °F 42 °F 37 °F (2015)
Degree Days  
Heating Degree Days 2    
Growing Degree Days 12 (Base 50)    
Moisture  
Dew Point 45 °F    
Average Humidity 62    
Maximum Humidity 99    
Minimum Humidity 24    
Precipitation  
Precipitation 0.02 in - - ()
Sea Level Pressure  
Sea Level Pressure 29.72 in    
Wind  
Wind Speed 7 mph (SE)    
Max Wind Speed 21 mph    
Max Gust Speed 33 mph    
Visibility 10 miles    
Events Rain , Thunderstorm    
Averages and records for this station are not official NWS values.
T = Trace of Precipitation, MM = Missing Value Source: NWS Daily Summary

Daily Weather History Graph

Daily Weather History Graph

Search for Another Location

Airport or City:

Astronomy

May. 26, 2019 Rise Set
Actual Time 5:38 AM MDT 8:14 PM MDT
Civil Twilight 5:07 AM MDT 8:45 PM MDT
Nautical Twilight 4:29 AM MDT 9:24 PM MDT
Astronomical Twilight 3:45 AM MDT 10:07 PM MDT
Moon 1:49 AM MDT (5/26) 12:37 PM MDT (5/26)
Length of Visible Light 15h 37m
Length of Day
14h 35m
Waning Gibbous, 49% of the Moon is Illuminated
May 26
Waning Gibbous
Jun 3
New
Jun 10
First Quarter
Jun 17
Full
Jun 25
Last Quarter

Hourly Weather History & Observations

Time (MDT) Temp. Dew Point Humidity Pressure Visibility Wind Dir Wind Speed Gust Speed Precip Events Conditions
12:58 AM 54.9 °F 49.8 °F 83% 29.82 in 10.0 mi South 5.8 mph - N/A   Overcast
1:58 AM 52.2 °F 50.2 °F 93% 29.82 in 10.0 mi SE 4.6 mph - N/A   Partly Cloudy
2:12 AM 51.8 °F 50.0 °F 94% 29.82 in 10.0 mi Calm Calm - N/A   Mostly Cloudy
2:58 AM 51.4 °F 51.1 °F 99% 29.83 in 10.0 mi South 4.6 mph - N/A   Overcast
3:58 AM 52.0 °F 51.6 °F 99% 29.82 in 10.0 mi South 5.8 mph - N/A   Overcast
4:58 AM 52.2 °F 51.3 °F 97% 29.81 in 10.0 mi Calm Calm - N/A   Overcast
5:58 AM 50.2 °F 49.8 °F 99% 29.82 in 10.0 mi Calm Calm - N/A   Overcast
6:58 AM 51.4 °F 50.5 °F 97% 29.84 in 10.0 mi Calm Calm - N/A   Overcast
7:58 AM 53.4 °F 48.7 °F 84% 29.88 in 10.0 mi South 6.9 mph - N/A   Overcast
8:13 AM 53.6 °F 48.2 °F 82% 29.87 in 10.0 mi Calm Calm - N/A   Overcast
8:58 AM 56.8 °F 48.2 °F 73% 29.86 in 10.0 mi Calm Calm - N/A   Mostly Cloudy
9:13 AM 57.2 °F 48.2 °F 72% 29.86 in 10.0 mi SSW 4.6 mph - N/A   Partly Cloudy
9:58 AM 60.4 °F 47.8 °F 63% 29.84 in 10.0 mi SSE 4.6 mph - N/A   Clear
10:58 AM 64.8 °F 48.2 °F 55% 29.81 in 10.0 mi South 5.8 mph - N/A   Partly Cloudy
11:58 AM 70.0 °F 36.3 °F 29% 29.77 in 10.0 mi SSE 12.7 mph - N/A   Clear
12:58 PM 70.3 °F 33.8 °F 26% 29.74 in 10.0 mi SSE 15.0 mph 24.2 mph N/A   Scattered Clouds
1:58 PM 72.7 °F 34.9 °F 25% 29.70 in 10.0 mi SSE 19.6 mph 27.6 mph N/A   Clear
2:58 PM 74.5 °F 35.2 °F 24% 29.67 in 10.0 mi South 11.5 mph 20.7 mph N/A   Clear
3:05 PM 75.2 °F 37.4 °F 25% 29.66 in 10.0 mi SE 18.4 mph 25.3 mph N/A   Partly Cloudy
3:34 PM 68.0 °F 39.2 °F 35% 29.69 in 10.0 mi SSE 13.8 mph 31.1 mph N/A   Light Drizzle
3:44 PM 69.8 °F 41.0 °F 35% 29.65 in 10.0 mi SSE 8.1 mph - N/A   Mostly Cloudy
3:58 PM 73.2 °F 38.1 °F 28% 29.62 in 10.0 mi SE 17.3 mph 21.9 mph 0.00 in   Scattered Clouds
4:28 PM 69.8 °F 42.8 °F 38% 29.62 in 10.0 mi ESE 19.6 mph 33.4 mph N/A   Clear
4:47 PM 71.6 °F 46.4 °F 41% 29.60 in 10.0 mi SE 20.7 mph 29.9 mph N/A Rain Light Rain
4:57 PM 71.6 °F 46.4 °F 41% 29.59 in 10.0 mi SE 15.0 mph - N/A   Partly Cloudy
4:58 PM 71.1 °F 45.5 °F 40% 29.59 in 10.0 mi SE 13.8 mph - 0.00 in   Partly Cloudy
5:15 PM 71.6 °F 39.2 °F 31% 29.55 in 10.0 mi South 16.1 mph 26.5 mph N/A   Partly Cloudy
5:58 PM 70.3 °F 39.0 °F 32% 29.56 in 10.0 mi South 17.3 mph 26.5 mph 0.00 in   Clear
6:18 PM 68.0 °F 44.6 °F 43% 29.58 in 10.0 mi ESE 17.3 mph 23.0 mph N/A   Clear
6:58 PM 63.3 °F 50.9 °F 64% 29.63 in 10.0 mi East 15.0 mph 23.0 mph N/A   Mostly Cloudy
7:42 PM 57.2 °F 46.4 °F 67% 29.69 in 10.0 mi Calm Calm - N/A Rain Light Rain
7:57 PM 57.2 °F 48.2 °F 72% 29.67 in 9.0 mi East 5.8 mph - N/A Rain , Thunderstorm Light Rain
7:58 PM 57.0 °F 48.4 °F 73% 29.67 in 10.0 mi East 5.8 mph - 0.02 in Thunderstorm Scattered Clouds
8:15 PM 57.2 °F 50.0 °F 77% 29.67 in 10.0 mi Calm Calm - N/A   Partly Cloudy
8:58 PM 54.7 °F 48.6 °F 80% 29.69 in 10.0 mi NE 12.7 mph - 0.00 in   Scattered Clouds
9:58 PM 54.1 °F 45.7 °F 73% 29.68 in 10.0 mi NNW 4.6 mph - N/A   Clear
10:58 PM 54.3 °F 46.9 °F 76% 29.70 in 10.0 mi NNE 12.7 mph - N/A   Overcast
11:58 PM 51.6 °F 48.7 °F 90% 29.67 in 10.0 mi North 8.1 mph - N/A   Clear